Theta_e
324 323 323 323 324 324 324 325 326 324 325 325 325 324 323 322 320 320 318 318 317 316
325 325 324 324 324 325 325 325 324 325 324 324 324 324 323 322 322 319 318 318 317 314
324 326 326 325 324 324 325 323 323 325 325 325 325 324 323 323 322 319 317 314 312 311
315 317 320 324 324 323 323 324 325 325 326 326 324 323 322 321 317 315 314 309 311 310
306 310 313 316 317 318 322 320 323 321 321 320 318 318 318 315 311 312 307 306 306 305
300 302 304 303 305 309 312 314 314 314 314 312 311 310 309 309 307 307 306 304 304 301
298 299 299 299 300 304 306 307 307 307 306 305 304 303 301 302 302 302 301 301 301 298
297 297 296 295 294 296 298 299 300 300 299 299 300 298 298 297 297 296 295 294 294 294
295 294 294 295 293 291 291 293 295 294 294 294 292 295 295 294 293 292 290 289 289 289
291 291 291 291 292 291 291 292 292 291 291 291 292 294 294 292 290 289 289 288 288 286
290 290 290 290 290 289 289 289 289 289 289 289 290 293 292 290 288 288 287 287 287 286
291 288 289 287 288 288 287 286 286 286 286 287 287 292 291 288 286 285 285 285 285 286
290 289 288 288 286 285 285 285 285 286 286 286 286 291 290 287 285 285 284 284 284 284
286 287 287 286 285 286 285 285 285 285 285 286 286 288 289 288 285 285 284 284 283 283
Wind_Speed
15 11 11 12 10 10 10 10 9 11 12 12 11 11 10 9 9 10 9 12 9 7
13 13 13 13 9 9 9 7 7 9 11 12 11 12 12 10 12 11 12 12 10 7
11 12 12 9 12 11 10 8 8 10 12 13 14 14 14 12 11 10 8 7 8 6
5 5 5 8 8 10 8 10 11 12 12 13 12 11 12 12 7 9 8 5 7 7
5 4 5 6 5 6 10 8 10 7 6 6 6 7 9 8 6 8 8 7 6 6
2 1 1 2 3 3 2 2 2 2 4 4 4 3 3 4 5 5 6 8 8 6
3 4 4 3 3 4 3 3 3 2 3 2 1 2 3 3 5 5 4 3 4 7
4 4 4 5 5 4 5 4 4 4 4 1 2 3 5 5 5 6 5 5 5 4
4 4 4 4 3 3 2 2 3 3 2 1 1 1 5 7 5 5 6 5 4 5
5 5 4 4 3 3 2 3 3 4 2 2 2 4 7 8 5 6 6 7 5 5
5 5 4 4 3 3 2 2 2 1 2 2 2 7 9 7 5 4 5 6 7 7
5 4 3 3 3 2 2 2 2 2 4 3 3 6 9 8 5 5 5 4 3 5
6 6 5 5 4 2 2 3 3 4 4 4 4 3 4 5 4 5 5 4 5 7
4 5 5 5 2 4 4 4 4 5 3 4 2 3 5 6 2 4 4 3 3 2
Wind_Direction
208 209 216 216 213 219 218 220 212 211 219 222 220 219 215 217 220 219 221 222 214 209
207 210 216 219 212 219 221 222 209 203 210 220 220 220 218 222 225 215 216 220 212 200
211 212 216 211 215 213 215 202 203 210 214 219 219 214 214 222 229 222 226 220 211 193
218 215 218 224 217 212 207 208 217 220 223 227 225 219 219 225 210 217 224 211 205 213
219 217 222 225 220 206 216 217 218 212 229 231 231 229 221 223 209 206 196 196 190 191
116 101 63 44 28 26 3 322 81 148 192 220 248 245 250 196 199 215 194 176 178 178
152 142 137 122 94 83 88 129 139 88 93 96 188 161 158 171 163 159 170 187 193 167
144 116 104 80 62 49 58 54 67 84 74 93 221 196 187 166 158 146 126 108 108 128
132 118 105 83 71 72 78 77 79 76 99 70 20 249 168 155 145 133 134 130 118 114
142 130 119 111 101 70 39 36 42 51 89 105 99 144 139 132 127 130 131 133 142 121
152 130 128 134 140 125 104 105 101 99 114 131 132 145 136 102 103 106 120 142 145 136
140 124 141 119 122 69 87 66 76 83 79 83 60 138 134 115 104 106 98 83 90 137
156 158 156 150 126 97 90 80 71 66 71 99 79 98 96 100 103 117 122 122 138 151
125 138 134 130 115 129 115 112 108 104 87 91 83 123 130 155 105 138 149 173 171 147